TimePDT,TemperatureF,Dew PointF,Humidity,Sea Level PressureIn,VisibilityMPH,Wind Direction,Wind SpeedMPH,Gust SpeedMPH,PrecipitationIn,Events,Conditions,WindDirDegrees,DateUTC
12:52 AM,86.0,45.0,24,29.81,10.0,NW,4.6,-,N/A,,Clear,310,2013-08-06 07:52:00
1:52 AM,79.0,46.9,32,29.81,10.0,North,3.5,-,N/A,,Clear,360,2013-08-06 08:52:00
2:52 AM,81.0,46.0,29,29.80,10.0,NNW,6.9,-,N/A,,Clear,340,2013-08-06 09:52:00
3:52 AM,80.1,46.0,30,29.80,10.0,North,5.8,-,N/A,,Clear,350,2013-08-06 10:52:00
4:52 AM,73.9,48.9,41,29.81,10.0,NNE,3.5,-,N/A,,Clear,30,2013-08-06 11:52:00
5:52 AM,72.0,48.0,43,29.83,10.0,NNE,3.5,-,N/A,,Clear,20,2013-08-06 12:52:00
6:52 AM,68.0,51.1,55,29.85,10.0,Calm,Calm,-,N/A,,Clear,0,2013-08-06 13:52:00
7:52 AM,81.0,46.9,30,29.89,10.0,Calm,Calm,-,N/A,,Clear,0,2013-08-06 14:52:00
8:52 AM,88.0,46.9,24,29.87,10.0,NW,3.5,-,N/A,,Clear,310,2013-08-06 15:52:00
9:52 AM,91.9,43.0,18,29.88,10.0,Calm,Calm,-,N/A,,Clear,0,2013-08-06 16:52:00
10:52 AM,97.0,44.1,16,29.87,10.0,Variable,4.6,-,N/A,,Clear,0,2013-08-06 17:52:00
11:52 AM,99.0,48.0,18,29.86,10.0,SE,6.9,-,N/A,,Clear,140,2013-08-06 18:52:00
12:52 PM,100.0,48.9,18,29.84,10.0,South,6.9,-,N/A,,Clear,170,2013-08-06 19:52:00
1:52 PM,102.0,55.9,22,29.82,10.0,SE,6.9,-,N/A,,Clear,130,2013-08-06 20:52:00
2:52 PM,102.9,37.0,10,29.80,10.0,Variable,4.6,-,N/A,,Clear,0,2013-08-06 21:52:00
3:52 PM,104.0,45.0,14,29.78,10.0,SSE,9.2,-,N/A,,Clear,150,2013-08-06 22:52:00
4:52 PM,102.9,53.1,19,29.76,10.0,SSE,8.1,-,N/A,,Clear,150,2013-08-06 23:52:00
5:52 PM,102.0,44.1,14,29.77,10.0,SSE,8.1,-,N/A,,Clear,150,2013-08-07 00:52:00
6:52 PM,100.9,43.0,14,29.75,10.0,Calm,Calm,-,N/A,,Clear,0,2013-08-07 01:52:00
7:52 PM,91.9,46.0,21,29.79,10.0,NW,8.1,-,N/A,,Clear,320,2013-08-07 02:52:00
8:52 PM,93.9,42.1,17,29.79,10.0,NNW,15.0,-,N/A,,Clear,330,2013-08-07 03:52:00
9:52 PM,91.0,43.0,19,29.81,10.0,NNW,11.5,-,N/A,,Clear,330,2013-08-07 04:52:00
10:52 PM,89.1,43.0,20,29.81,10.0,NNW,10.4,-,N/A,,Clear,340,2013-08-07 05:52:00
11:52 PM,78.1,45.0,31,29.83,10.0,South,5.8,-,N/A,,Clear,170,2013-08-07 06:52:00